Time,TemperatureF,DewpointF,PressureIn,WindDirection,WindDirectionDegrees,WindSpeedMPH,WindSpeedGustMPH,Humidity,HourlyPrecipIn,Conditions,Clouds,dailyrainin,SoftwareType,DateUTC
2013-07-10 00:00:00,75.9,72.8,30.06,SW,226,0.0,49.1,90,0.82,,,0.10,VWS V14.01,2013-07-10 04:00:00,
2013-07-10 00:01:00,76.0,72.9,30.06,SW,226,0.0,49.1,90,0.82,,,0.10,VWS V14.01,2013-07-10 04:01:00,
2013-07-10 00:02:00,76.0,72.9,30.06,SW,226,0.0,49.1,90,0.82,,,0.10,VWS V14.01,2013-07-10 04:02:00,
2013-07-10 00:03:00,76.0,72.9,30.06,SW,226,0.0,49.1,90,0.82,,,0.10,VWS V14.01,2013-07-10 04:03:00,
2013-07-10 00:04:00,75.4,72.3,30.05,SW,226,0.0,49.1,90,0.82,,,0.00,VWS V14.01,2013-07-10 04:04:00,
2013-07-10 00:05:00,75.4,72.3,30.05,SW,226,0.0,49.1,90,0.82,,,0.00,VWS V14.01,2013-07-10 04:05:00,
2013-07-10 00:06:00,75.4,72.3,30.05,SW,226,0.0,49.1,90,0.82,,,0.00,VWS V14.01,2013-07-10 04:06:00,
2013-07-10 00:07:00,76.0,72.9,30.06,SW,226,0.0,49.1,90,0.82,,,0.10,VWS V14.01,2013-07-10 04:07:00,
2013-07-10 00:08:00,75.3,72.3,30.05,SW,226,0.0,49.1,90,0.82,,,0.00,VWS V14.01,2013-07-10 04:08:00,
2013-07-10 00:09:00,75.4,72.4,30.05,SW,226,0.0,49.1,90,0.82,,,0.00,VWS V14.01,2013-07-10 04:09:00,
2013-07-10 00:10:00,75.4,72.4,30.05,SW,226,0.0,49.1,90,0.82,,,0.00,VWS V14.01,2013-07-10 04:10:00,
2013-07-10 00:11:00,75.4,72.4,30.05,SW,226,0.0,49.1,90,0.82,,,0.00,VWS V14.01,2013-07-10 04:11:00,
2013-07-10 00:12:00,76.0,72.8,30.06,SW,226,0.0,49.1,90,0.82,,,0.10,VWS V14.01,2013-07-10 04:12:00,
2013-07-10 00:13:00,75.3,72.3,30.05,SW,226,0.0,49.1,90,0.82,,,0.00,VWS V14.01,2013-07-10 04:13:00,
2013-07-10 00:14:00,76.0,72.8,30.05,SW,226,0.0,49.1,90,0.82,,,0.10,VWS V14.01,2013-07-10 04:14:00,
2013-07-10 00:15:00,75.4,72.4,30.05,SW,226,0.0,49.1,90,0.82,,,0.00,VWS V14.01,2013-07-10 04:15:00,
2013-07-10 00:16:00,75.3,72.3,30.04,SW,226,0.0,49.1,90,0.82,,,0.00,VWS V14.01,2013-07-10 04:16:00,
2013-07-10 00:17:00,75.3,72.3,30.04,SW,226,0.0,49.1,90,0.82,,,0.00,VWS V14.01,2013-07-10 04:17:00,
2013-07-10 00:18:00,75.2,72.2,30.04,SW,226,0.0,49.1,90,0.82,,,0.00,VWS V14.01,2013-07-10 04:18:00,
2013-07-10 00:19:00,75.3,72.3,30.04,SW,226,0.0,49.1,90,0.82,,,0.00,VWS V14.01,2013-07-10 04:19:00,
2013-07-10 00:20:00,75.9,72.8,30.05,SW,226,0.0,49.1,90,0.82,,,0.10,VWS V14.01,2013-07-10 04:20:00,
2013-07-10 00:21:00,75.3,72.3,30.04,SW,226,0.0,49.1,90,0.82,,,0.00,VWS V14.01,2013-07-10 04:21:00,
2013-07-10 00:22:00,75.3,72.3,30.04,SW,226,0.0,49.1,90,0.82,,,0.00,VWS V14.01,2013-07-10 04:22:00,
2013-07-10 00:23:00,75.2,72.2,30.04,SW,226,0.0,49.1,90,0.82,,,0.00,VWS V14.01,2013-07-10 04:23:00,
2013-07-10 00:24:00,75.3,72.3,30.04,SW,226,0.0,49.1,90,0.82,,,0.00,VWS V14.01,2013-07-10 04:24:00,
2013-07-10 00:25:00,75.8,72.7,30.05,SW,226,0.0,49.1,90,0.82,,,0.10,VWS V14.01,2013-07-10 04:25:00,
2013-07-10 00:26:00,75.2,72.2,30.04,SW,226,0.0,49.1,90,0.82,,,0.00,VWS V14.01,2013-07-10 04:26:00,
2013-07-10 00:27:00,75.2,72.2,30.04,SW,226,0.0,49.1,90,0.82,,,0.00,VWS V14.01,2013-07-10 04:27:00,
2013-07-10 00:28:00,75.2,72.2,30.04,SW,226,0.0,49.1,90,0.82,,,0.00,VWS V14.01,2013-07-10 04:28:00,
2013-07-10 00:29:00,75.3,72.3,30.04,SW,226,0.0,49.1,90,0.82,,,0.00,VWS V14.01,2013-07-10 04:29:00,
2013-07-10 00:30:00,75.8,72.7,30.05,SW,226,0.0,49.1,90,0.82,,,0.10,VWS V14.01,2013-07-10 04:30:00,
2013-07-10 00:31:00,75.1,72.1,30.04,SW,226,0.0,49.1,90,0.82,,,0.00,VWS V14.01,2013-07-10 04:31:00,
2013-07-10 00:32:00,75.2,72.2,30.04,SW,226,0.0,49.1,90,0.82,,,0.00,VWS V14.01,2013-07-10 04:32:00,
2013-07-10 00:33:00,75.1,72.1,30.04,SW,226,0.0,49.1,90,0.82,,,0.00,VWS V14.01,2013-07-10 04:33:00,
2013-07-10 00:34:00,75.1,72.1,30.04,SW,226,0.0,49.1,90,0.82,,,0.00,VWS V14.01,2013-07-10 04:34:00,
2013-07-10 00:35:00,75.1,72.1,30.04,SW,226,0.0,49.1,90,0.82,,,0.00,VWS V14.01,2013-07-10 04:35:00,
2013-07-10 00:36:00,75.8,72.6,30.05,SW,226,0.0,49.1,90,0.82,,,0.10,VWS V14.01,2013-07-10 04:36:00,
2013-07-10 00:37:00,75.0,72.1,30.04,SW,226,0.0,49.1,91,0.82,,,0.00,VWS V14.01,2013-07-10 04:37:00,
2013-07-10 00:38:00,75.0,72.1,30.04,SW,226,0.0,49.1,91,0.82,,,0.00,VWS V14.01,2013-07-10 04:38:00,
2013-07-10 00:39:00,75.0,72.1,30.04,SW,226,0.0,49.1,91,0.82,,,0.00,VWS V14.01,2013-07-10 04:39:00,
2013-07-10 00:40:00,74.9,72.1,30.04,SW,226,0.0,49.1,91,0.82,,,0.00,VWS V14.01,2013-07-10 04:40:00,
2013-07-10 00:41:00,75.7,72.6,30.05,SW,226,0.0,49.1,90,0.82,,,0.10,VWS V14.01,2013-07-10 04:41:00,
2013-07-10 00:43:00,74.9,72.1,30.04,SW,226,0.0,49.1,91,0.82,,,0.00,VWS V14.01,2013-07-10 04:43:00,
2013-07-10 00:44:00,74.9,72.1,30.04,SW,226,0.0,49.1,91,0.82,,,0.00,VWS V14.01,2013-07-10 04:44:00,
2013-07-10 00:45:00,74.9,72.1,30.04,SW,226,0.0,49.1,91,0.82,,,0.00,VWS V14.01,2013-07-10 04:45:00,
2013-07-10 00:46:00,74.9,72.0,30.04,SW,226,0.0,49.1,91,0.82,,,0.00,VWS V14.01,2013-07-10 04:46:00,
2013-07-10 00:47:00,75.6,72.4,30.05,SW,226,0.0,49.1,90,0.82,,,0.10,VWS V14.01,2013-07-10 04:47:00,
2013-07-10 00:48:00,74.9,72.0,30.04,SW,226,0.0,49.1,91,0.82,,,0.00,VWS V14.01,2013-07-10 04:48:00,
2013-07-10 00:49:00,74.9,72.1,30.04,SW,226,0.0,49.1,91,0.82,,,0.00,VWS V14.01,2013-07-10 04:49:00,
2013-07-10 00:50:00,74.9,72.1,30.04,SW,226,0.0,49.1,91,0.82,,,0.00,VWS V14.01,2013-07-10 04:50:00,
2013-07-10 00:51:00,74.9,72.1,30.03,SW,226,0.0,49.1,91,0.82,,,0.00,VWS V14.01,2013-07-10 04:51:00,
2013-07-10 00:52:00,75.5,72.4,30.05,SW,226,0.0,49.1,90,0.82,,,0.10,VWS V14.01,2013-07-10 04:52:00,
2013-07-10 00:53:00,74.9,72.1,30.03,SW,226,0.0,49.1,91,0.82,,,0.00,VWS V14.01,2013-07-10 04:53:00,
2013-07-10 00:54:00,74.9,72.1,30.03,SW,226,0.0,49.1,91,0.82,,,0.00,VWS V14.01,2013-07-10 04:54:00,
2013-07-10 00:55:00,74.8,72.0,30.03,SW,226,0.0,49.1,91,0.82,,,0.00,VWS V14.01,2013-07-10 04:55:00,
2013-07-10 00:56:00,74.9,72.1,30.03,SW,226,0.0,49.1,91,0.82,,,0.00,VWS V14.01,2013-07-10 04:56:00,
2013-07-10 00:59:00,74.8,72.0,30.03,SW,226,0.0,49.1,91,0.82,,,0.00,VWS V14.01,2013-07-10 04:59:00,
2013-07-10 01:00:00,74.9,72.1,30.03,SW,226,0.0,49.1,91,0.82,,,0.00,VWS V14.01,2013-07-10 05:00:00,
2013-07-10 01:02:00,74.9,72.0,30.03,SW,226,0.0,49.1,91,0.82,,,0.00,VWS V14.01,2013-07-10 05:02:00,
2013-07-10 01:03:00,74.9,72.0,30.03,SW,226,0.0,49.1,91,0.82,,,0.00,VWS V14.01,2013-07-10 05:03:00,
2013-07-10 01:05:00,74.9,72.0,30.03,SW,226,0.0,49.1,91,0.82,,,0.00,VWS V14.01,2013-07-10 05:05:00,
2013-07-10 01:07:00,74.9,72.0,30.03,SW,226,0.0,49.1,91,0.82,,,0.00,VWS V14.01,2013-07-10 05:07:00,
2013-07-10 01:08:00,74.9,72.0,30.03,SW,226,0.0,49.1,91,0.82,,,0.00,VWS V14.01,2013-07-10 05:08:00,
2013-07-10 01:09:00,74.9,72.0,30.03,SW,226,0.0,49.1,91,0.82,,,0.00,VWS V14.01,2013-07-10 05:09:00,
2013-07-10 01:10:00,74.9,72.0,30.03,SW,226,0.0,49.1,91,0.82,,,0.00,VWS V14.01,2013-07-10 05:10:00,
2013-07-10 01:11:00,74.9,72.0,30.03,SW,226,0.0,49.1,91,0.82,,,0.00,VWS V14.01,2013-07-10 05:11:00,
2013-07-10 01:13:00,74.9,71.9,30.03,SW,226,0.0,49.1,90,0.82,,,0.00,VWS V14.01,2013-07-10 05:13:00,
2013-07-10 01:16:00,74.8,71.9,30.03,SW,226,0.0,49.1,91,0.82,,,0.00,VWS V14.01,2013-07-10 05:16:00,
2013-07-10 01:17:00,74.8,71.9,30.03,SW,226,0.0,49.1,91,0.82,,,0.00,VWS V14.01,2013-07-10 05:17:00,
2013-07-10 01:18:00,74.9,72.0,30.03,SW,226,0.0,49.1,91,0.82,,,0.00,VWS V14.01,2013-07-10 05:18:00,
2013-07-10 01:19:00,74.8,71.9,30.03,SW,226,0.0,49.1,91,0.82,,,0.00,VWS V14.01,2013-07-10 05:19:00,
2013-07-10 01:20:00,74.8,71.9,30.03,SW,226,0.0,49.1,91,0.82,,,0.00,VWS V14.01,2013-07-10 05:20:00,
2013-07-10 01:21:00,74.8,71.9,30.03,SW,226,0.0,49.1,91,0.82,,,0.00,VWS V14.01,2013-07-10 05:21:00,
2013-07-10 01:22:00,74.8,71.9,30.03,SW,226,0.0,49.1,91,0.82,,,0.00,VWS V14.01,2013-07-10 05:22:00,
2013-07-10 01:23:00,74.8,71.9,30.02,SW,226,0.0,49.1,91,0.82,,,0.00,VWS V14.01,2013-07-10 05:23:00,
2013-07-10 01:24:00,74.8,71.9,30.02,SW,226,0.0,49.1,91,0.82,,,0.00,VWS V14.01,2013-07-10 05:24:00,
2013-07-10 01:25:00,74.8,71.9,30.02,SW,226,0.0,49.1,91,0.82,,,0.00,VWS V14.01,2013-07-10 05:25:00,
2013-07-10 01:27:00,74.8,71.9,30.02,SW,226,0.0,49.1,91,0.82,,,0.00,VWS V14.01,2013-07-10 05:27:00,
2013-07-10 01:28:00,74.8,71.9,30.03,SW,226,0.0,49.1,91,0.82,,,0.00,VWS V14.01,2013-07-10 05:28:00,
2013-07-10 01:31:00,74.8,71.9,30.02,SW,226,0.0,49.1,91,0.82,,,0.00,VWS V14.01,2013-07-10 05:31:00,
2013-07-10 01:35:00,74.8,71.9,30.02,SW,226,0.0,49.1,91,0.82,,,0.00,VWS V14.01,2013-07-10 05:35:00,
2013-07-10 01:37:00,74.7,71.8,30.02,SW,226,0.0,49.1,91,0.82,,,0.00,VWS V14.01,2013-07-10 05:37:00,
2013-07-10 01:38:00,74.7,71.8,30.02,SW,226,0.0,49.1,91,0.82,,,0.00,VWS V14.01,2013-07-10 05:38:00,
2013-07-10 01:39:00,74.7,71.8,30.02,SW,226,0.0,49.1,91,0.82,,,0.00,VWS V14.01,2013-07-10 05:39:00,
2013-07-10 01:42:00,74.7,71.8,30.02,SW,226,0.0,49.1,91,0.82,,,0.00,VWS V14.01,2013-07-10 05:42:00,
2013-07-10 01:45:00,74.6,71.7,30.02,SW,226,0.0,49.1,91,0.82,,,0.00,VWS V14.01,2013-07-10 05:45:00,
2013-07-10 01:50:00,74.7,71.7,30.02,SW,226,0.0,49.1,90,0.82,,,0.00,VWS V14.01,2013-07-10 05:50:00,
2013-07-10 01:51:00,74.7,71.7,30.02,SW,226,0.0,49.1,90,0.82,,,0.00,VWS V14.01,2013-07-10 05:51:00,
2013-07-10 01:52:00,74.6,71.6,30.02,SW,226,0.0,49.1,90,0.82,,,0.00,VWS V14.01,2013-07-10 05:52:00,
2013-07-10 01:54:00,74.8,72.0,30.03,SW,226,0.0,49.1,91,0.82,,,0.00,VWS V14.01,2013-07-10 05:54:00,
2013-07-10 02:01:00,74.5,71.6,30.02,SW,226,0.0,49.1,91,0.82,,,0.00,VWS V14.01,2013-07-10 06:01:00,
2013-07-10 02:03:00,74.9,72.0,30.03,SW,226,0.0,49.1,91,0.82,,,0.00,VWS V14.01,2013-07-10 06:03:00,
2013-07-10 02:09:00,74.9,71.9,30.03,SW,226,0.0,49.1,90,0.82,,,0.00,VWS V14.01,2013-07-10 06:09:00,
2013-07-10 02:24:00,74.8,71.9,30.02,SW,226,0.0,49.1,91,0.82,,,0.00,VWS V14.01,2013-07-10 06:24:00,
2013-07-10 02:29:00,74.7,71.8,30.02,SW,226,0.0,49.1,91,0.82,,,0.00,VWS V14.01,2013-07-10 06:29:00,
2013-07-10 02:30:00,74.1,71.1,30.01,SW,226,0.0,49.1,90,0.82,,,0.00,VWS V14.01,2013-07-10 06:30:00,
2013-07-10 02:37:00,74.7,71.8,30.02,SW,226,0.0,49.1,91,0.82,,,0.00,VWS V14.01,2013-07-10 06:37:00,
2013-07-10 02:43:00,74.7,71.8,30.02,SW,226,0.0,49.1,91,0.82,,,0.00,VWS V14.01,2013-07-10 06:43:00,
2013-07-10 02:51:00,74.6,71.6,30.02,SW,226,0.0,49.1,90,0.82,,,0.00,VWS V14.01,2013-07-10 06:51:00,
2013-07-10 02:54:00,74.1,71.2,30.01,SW,226,0.0,49.1,91,0.82,,,0.00,VWS V14.01,2013-07-10 06:54:00,
2013-07-10 02:56:00,74.6,71.6,30.02,SW,226,0.0,49.1,90,0.82,,,0.00,VWS V14.01,2013-07-10 06:56:00,
2013-07-10 02:58:00,74.1,71.2,30.02,SW,226,0.0,49.1,91,0.82,,,0.00,VWS V14.01,2013-07-10 06:58:00,
2013-07-10 03:01:00,74.4,71.5,30.02,SW,226,0.0,49.1,91,0.82,,,0.00,VWS V14.01,2013-07-10 07:01:00,
2013-07-10 03:03:00,74.1,71.3,30.02,SW,226,0.0,49.1,91,0.82,,,0.00,VWS V14.01,2013-07-10 07:03:00,
2013-07-10 03:04:00,74.1,71.3,30.01,SW,226,0.0,49.1,91,0.82,,,0.00,VWS V14.01,2013-07-10 07:04:00,
2013-07-10 03:07:00,74.3,71.3,30.02,SW,226,0.0,49.1,90,0.82,,,0.00,VWS V14.01,2013-07-10 07:07:00,
2013-07-10 03:11:00,74.1,71.3,30.01,SW,226,0.0,49.1,91,0.82,,,0.00,VWS V14.01,2013-07-10 07:11:00,
2013-07-10 03:12:00,74.1,71.3,30.01,SW,226,0.0,49.1,91,0.82,,,0.00,VWS V14.01,2013-07-10 07:12:00,
2013-07-10 03:13:00,74.2,71.2,30.02,SW,226,0.0,49.1,90,0.82,,,0.00,VWS V14.01,2013-07-10 07:13:00,
2013-07-10 03:14:00,74.1,71.3,30.01,SW,226,0.0,49.1,91,0.82,,,0.00,VWS V14.01,2013-07-10 07:14:00,
2013-07-10 03:15:00,74.1,71.3,30.01,SW,226,0.0,49.1,91,0.82,,,0.00,VWS V14.01,2013-07-10 07:15:00,
2013-07-10 03:18:00,74.1,71.2,30.02,SW,226,0.0,49.1,90,0.82,,,0.00,VWS V14.01,2013-07-10 07:18:00,
2013-07-10 03:23:00,74.1,71.1,30.02,SW,226,0.0,49.1,90,0.82,,,0.00,VWS V14.01,2013-07-10 07:23:00,
2013-07-10 03:28:00,74.1,71.1,30.01,SW,226,0.0,49.1,90,0.82,,,0.00,VWS V14.01,2013-07-10 07:28:00,
2013-07-10 03:33:00,74.1,71.1,30.01,SW,226,0.0,49.1,90,0.82,,,0.00,VWS V14.01,2013-07-10 07:33:00,
2013-07-10 03:39:00,74.2,71.2,30.01,SW,226,0.0,49.1,90,0.82,,,0.00,VWS V14.01,2013-07-10 07:39:00,
2013-07-10 03:44:00,74.1,71.2,30.01,SW,226,0.0,49.1,90,0.82,,,0.00,VWS V14.01,2013-07-10 07:44:00,
2013-07-10 03:49:00,74.1,71.2,30.01,SW,226,0.0,49.1,91,0.82,,,0.00,VWS V14.01,2013-07-10 07:49:00,
2013-07-10 03:54:00,74.1,71.2,30.02,SW,226,0.0,49.1,91,0.82,,,0.00,VWS V14.01,2013-07-10 07:54:00,
2013-07-10 04:00:00,74.1,71.3,30.02,SW,226,0.0,49.1,91,0.82,,,0.00,VWS V14.01,2013-07-10 08:00:00,
2013-07-10 04:05:00,74.1,71.2,30.01,SW,226,0.0,49.1,91,0.82,,,0.00,VWS V14.01,2013-07-10 08:05:00,
2013-07-10 04:10:00,74.1,71.3,30.01,SW,226,0.0,49.1,91,0.82,,,0.00,VWS V14.01,2013-07-10 08:10:00,
2013-07-10 04:16:00,74.1,71.2,30.01,SW,226,0.0,49.1,91,0.82,,,0.00,VWS V14.01,2013-07-10 08:16:00,
2013-07-10 04:21:00,74.0,71.2,30.01,SW,226,0.0,49.1,91,0.82,,,0.00,VWS V14.01,2013-07-10 08:21:00,
2013-07-10 04:27:00,73.9,71.1,30.01,SW,226,0.0,49.1,91,0.82,,,0.00,VWS V14.01,2013-07-10 08:27:00,
2013-07-10 04:32:00,73.9,71.1,30.01,SW,226,0.0,49.1,91,0.82,,,0.00,VWS V14.01,2013-07-10 08:32:00,
2013-07-10 04:37:00,73.9,71.1,30.01,SW,226,0.0,49.1,91,0.82,,,0.00,VWS V14.01,2013-07-10 08:37:00,
2013-07-10 04:42:00,73.8,71.0,30.01,SW,226,0.0,49.1,91,0.82,,,0.00,VWS V14.01,2013-07-10 08:42:00,
2013-07-10 04:47:00,73.7,70.9,30.01,SW,226,0.0,49.1,91,0.82,,,0.00,VWS V14.01,2013-07-10 08:47:00,
2013-07-10 04:52:00,73.7,70.9,30.01,SW,226,0.0,49.1,91,0.82,,,0.00,VWS V14.01,2013-07-10 08:52:00,
2013-07-10 04:58:00,73.5,70.7,30.01,SW,226,0.0,49.1,91,0.82,,,0.00,VWS V14.01,2013-07-10 08:58:00,
2013-07-10 05:03:00,73.5,70.8,30.01,SW,226,0.0,49.1,91,0.82,,,0.00,VWS V14.01,2013-07-10 09:03:00,
2013-07-10 05:08:00,73.2,70.6,30.01,SW,226,0.0,49.1,92,0.82,,,0.00,VWS V14.01,2013-07-10 09:08:00,
2013-07-10 05:13:00,73.1,70.5,30.01,SW,226,0.0,49.1,92,0.82,,,0.00,VWS V14.01,2013-07-10 09:13:00,
2013-07-10 05:18:00,73.2,70.6,30.01,SW,226,0.0,49.1,92,0.82,,,0.00,VWS V14.01,2013-07-10 09:18:00,
2013-07-10 05:24:00,73.1,70.6,30.02,SW,226,0.0,49.1,92,0.82,,,0.00,VWS V14.01,2013-07-10 09:24:00,
2013-07-10 05:29:00,73.1,70.6,30.01,SW,226,0.0,49.1,92,0.82,,,0.00,VWS V14.01,2013-07-10 09:29:00,
2013-07-10 05:35:00,73.2,70.6,30.02,SW,226,0.0,49.1,92,0.82,,,0.00,VWS V14.01,2013-07-10 09:35:00,
2013-07-10 05:40:00,73.2,70.7,30.02,SW,226,0.0,49.1,92,0.82,,,0.00,VWS V14.01,2013-07-10 09:40:00,
2013-07-10 05:46:00,73.2,70.6,30.01,SW,226,0.0,49.1,92,0.82,,,0.00,VWS V14.01,2013-07-10 09:46:00,
2013-07-10 05:51:00,73.3,70.8,30.02,SW,226,0.0,49.1,92,0.82,,,0.00,VWS V14.01,2013-07-10 09:51:00,
2013-07-10 05:57:00,73.3,70.8,30.02,SW,226,0.0,49.1,92,0.82,,,0.00,VWS V14.01,2013-07-10 09:57:00,
2013-07-10 06:02:00,73.4,71.0,30.02,SW,226,0.0,49.1,92,0.82,,,0.00,VWS V14.01,2013-07-10 10:02:00,
2013-07-10 06:08:00,73.5,71.0,30.01,SW,226,0.0,49.1,92,0.82,,,0.00,VWS V14.01,2013-07-10 10:08:00,
2013-07-10 06:13:00,73.7,71.2,30.01,SW,226,0.0,49.1,92,0.82,,,0.00,VWS V14.01,2013-07-10 10:13:00,
2013-07-10 06:19:00,73.8,71.3,30.01,SW,226,0.0,49.1,92,0.82,,,0.00,VWS V14.01,2013-07-10 10:19:00,
2013-07-10 06:25:00,73.9,71.3,30.01,SW,226,0.0,49.1,92,0.82,,,0.00,VWS V14.01,2013-07-10 10:25:00,
2013-07-10 06:30:00,74.0,71.4,30.01,SW,226,0.0,49.1,92,0.82,,,0.00,VWS V14.01,2013-07-10 10:30:00,
2013-07-10 06:35:00,73.9,71.3,30.01,SW,226,0.0,49.1,92,0.82,,,0.00,VWS V14.01,2013-07-10 10:35:00,
2013-07-10 06:41:00,73.9,71.3,30.01,SW,226,0.0,49.1,92,0.82,,,0.00,VWS V14.01,2013-07-10 10:41:00,
2013-07-10 06:48:00,74.0,71.4,30.01,SW,226,0.0,49.1,92,0.82,,,0.00,VWS V14.01,2013-07-10 10:48:00,
2013-07-10 06:54:00,74.0,71.4,30.00,SW,226,0.0,49.1,92,0.82,,,0.00,VWS V14.01,2013-07-10 10:54:00,
2013-07-10 06:59:00,74.1,71.5,30.00,SW,226,0.0,49.1,92,0.82,,,0.00,VWS V14.01,2013-07-10 10:59:00,
2013-07-10 07:05:00,74.2,71.6,30.00,SW,226,0.0,49.1,92,0.82,,,0.00,VWS V14.01,2013-07-10 11:05:00,
2013-07-10 07:10:00,74.4,71.8,30.00,SW,226,0.0,49.1,92,0.82,,,0.00,VWS V14.01,2013-07-10 11:10:00,
2013-07-10 07:16:00,74.5,71.8,30.00,SW,226,0.0,49.1,91,0.82,,,0.00,VWS V14.01,2013-07-10 11:16:00,
2013-07-10 07:21:00,74.8,72.1,30.00,SW,226,0.0,49.1,91,0.82,,,0.00,VWS V14.01,2013-07-10 11:21:00,
2013-07-10 07:27:00,74.9,72.1,30.00,SW,226,0.0,49.1,91,0.82,,,0.00,VWS V14.01,2013-07-10 11:27:00,
2013-07-10 07:32:00,75.0,72.2,30.00,SW,226,0.0,49.1,91,0.82,,,0.00,VWS V14.01,2013-07-10 11:32:00,
2013-07-10 07:37:00,75.2,72.4,30.00,SW,226,0.0,49.1,91,0.82,,,0.00,VWS V14.01,2013-07-10 11:37:00,
2013-07-10 07:42:00,75.5,72.7,30.00,SW,226,0.0,49.1,91,0.82,,,0.00,VWS V14.01,2013-07-10 11:42:00,
2013-07-10 07:48:00,75.8,72.9,30.00,SW,226,0.0,49.1,91,0.82,,,0.00,VWS V14.01,2013-07-10 11:48:00,
2013-07-10 07:53:00,76.0,72.9,30.00,WNW,300,0.0,49.1,90,0.82,,,0.00,VWS V14.01,2013-07-10 11:53:00,
2013-07-10 07:58:00,76.2,72.9,30.00,WNW,300,0.0,49.1,90,0.82,,,0.00,VWS V14.01,2013-07-10 11:58:00,
2013-07-10 08:04:00,76.3,73.2,30.00,WNW,300,0.0,49.1,90,0.82,,,0.00,VWS V14.01,2013-07-10 12:04:00,
2013-07-10 08:10:00,76.4,73.0,30.00,SE,134,0.0,49.1,89,0.82,,,0.00,VWS V14.01,2013-07-10 12:10:00,
2013-07-10 08:15:00,76.4,73.0,30.00,SE,134,0.0,49.1,89,0.82,,,0.00,VWS V14.01,2013-07-10 12:15:00,
2013-07-10 08:21:00,76.4,73.0,30.00,SW,236,0.0,49.1,89,0.82,,,0.00,VWS V14.01,2013-07-10 12:21:00,
2013-07-10 08:26:00,76.7,72.9,30.00,SW,219,0.0,49.1,88,0.82,,,0.00,VWS V14.01,2013-07-10 12:26:00,
2013-07-10 08:32:00,76.6,72.8,30.00,SW,219,0.0,49.1,88,0.82,,,0.00,VWS V14.01,2013-07-10 12:32:00,
2013-07-10 08:37:00,76.9,73.2,30.00,SW,219,0.0,49.1,88,0.82,,,0.00,VWS V14.01,2013-07-10 12:37:00,
2013-07-10 08:43:00,76.8,73.1,30.00,SW,219,0.0,49.1,88,0.82,,,0.00,VWS V14.01,2013-07-10 12:43:00,
2013-07-10 08:48:00,76.8,73.0,30.00,SW,219,0.0,49.1,88,0.82,,,0.00,VWS V14.01,2013-07-10 12:48:00,
2013-07-10 08:53:00,77.0,73.2,30.00,WSW,252,0.0,49.1,88,0.82,,,0.00,VWS V14.01,2013-07-10 12:53:00,
2013-07-10 08:59:00,76.9,73.1,30.00,WSW,252,0.0,49.1,88,0.82,,,0.00,VWS V14.01,2013-07-10 12:59:00,
2013-07-10 09:04:00,77.0,73.3,30.00,WSW,252,0.0,49.1,88,0.82,,,0.00,VWS V14.01,2013-07-10 13:04:00,
2013-07-10 09:09:00,77.0,73.1,29.99,WSW,252,0.0,49.1,88,0.82,,,0.00,VWS V14.01,2013-07-10 13:09:00,
2013-07-10 09:15:00,77.4,73.6,29.99,WSW,252,0.0,49.1,88,0.82,,,0.00,VWS V14.01,2013-07-10 13:15:00,
2013-07-10 09:20:00,77.9,73.8,29.98,WSW,252,0.0,49.1,87,0.82,,,0.00,VWS V14.01,2013-07-10 13:20:00,
2013-07-10 09:25:00,78.2,73.7,29.98,WSW,252,0.0,49.1,86,0.82,,,0.00,VWS V14.01,2013-07-10 13:25:00,
2013-07-10 09:31:00,78.8,74.0,29.98,WSW,252,0.0,49.1,85,0.82,,,0.00,VWS V14.01,2013-07-10 13:31:00,
2013-07-10 09:36:00,78.8,73.6,29.98,WSW,252,0.0,49.1,84,0.82,,,0.00,VWS V14.01,2013-07-10 13:36:00,
2013-07-10 09:41:00,79.1,73.7,29.98,NW,312,0.0,49.1,84,0.82,,,0.00,VWS V14.01,2013-07-10 13:41:00,
2013-07-10 09:46:00,79.4,74.1,29.98,NW,312,0.0,49.1,84,0.82,,,0.00,VWS V14.01,2013-07-10 13:46:00,
2013-07-10 09:51:00,80.1,74.4,29.98,NW,312,0.0,49.1,83,0.82,,,0.00,VWS V14.01,2013-07-10 13:51:00,
2013-07-10 09:57:00,79.9,73.2,29.98,SE,124,3.3,49.1,80,0.82,,,0.00,VWS V14.01,2013-07-10 13:57:00,
2013-07-10 10:02:00,79.9,73.4,29.98,SE,124,0.0,49.1,81,0.82,,,0.00,VWS V14.01,2013-07-10 14:02:00,
2013-07-10 10:07:00,79.9,73.2,29.98,West,267,0.0,49.1,80,0.82,,,0.00,VWS V14.01,2013-07-10 14:07:00,
2013-07-10 10:12:00,80.1,73.6,29.97,SW,219,0.0,49.1,81,0.82,,,0.00,VWS V14.01,2013-07-10 14:12:00,
2013-07-10 10:17:00,80.4,73.6,29.97,SW,219,0.0,49.1,80,0.82,,,0.00,VWS V14.01,2013-07-10 14:17:00,
2013-07-10 10:23:00,80.9,73.5,29.97,WNW,283,0.0,49.1,78,0.82,,,0.00,VWS V14.01,2013-07-10 14:23:00,
2013-07-10 10:28:00,81.4,73.8,29.97,WNW,283,0.0,49.1,78,0.82,,,0.00,VWS V14.01,2013-07-10 14:28:00,
2013-07-10 10:33:00,82.0,74.2,29.97,South,169,0.0,49.1,77,0.82,,,0.00,VWS V14.01,2013-07-10 14:33:00,
2013-07-10 10:38:00,82.3,74.5,29.97,South,169,0.0,49.1,77,0.82,,,0.00,VWS V14.01,2013-07-10 14:38:00,
2013-07-10 10:43:00,83.0,74.1,29.97,South,169,0.0,49.1,75,0.82,,,0.00,VWS V14.01,2013-07-10 14:43:00,
2013-07-10 10:48:00,83.5,73.3,29.97,SE,129,3.2,49.1,72,0.82,,,0.00,VWS V14.01,2013-07-10 14:48:00,
2013-07-10 10:53:00,84.4,73.4,29.97,SW,232,0.0,49.1,70,0.82,,,0.00,VWS V14.01,2013-07-10 14:53:00,
2013-07-10 10:58:00,84.0,72.9,29.97,SW,215,0.0,49.1,69,0.82,,,0.00,VWS V14.01,2013-07-10 14:58:00,
2013-07-10 11:03:00,83.8,73.0,29.97,WNW,291,0.0,49.1,70,0.82,,,0.00,VWS V14.01,2013-07-10 15:03:00,
2013-07-10 11:08:00,83.2,73.1,29.97,South,183,0.0,49.1,72,0.82,,,0.00,VWS V14.01,2013-07-10 15:08:00,
2013-07-10 11:13:00,82.8,72.5,29.96,NW,326,0.0,49.1,71,0.82,,,0.00,VWS V14.01,2013-07-10 15:13:00,
2013-07-10 11:19:00,82.8,72.9,29.96,SW,219,0.0,49.1,72,0.82,,,0.00,VWS V14.01,2013-07-10 15:19:00,
2013-07-10 11:24:00,83.2,73.4,29.96,SW,219,0.0,49.1,72,0.82,,,0.00,VWS V14.01,2013-07-10 15:24:00,
2013-07-10 11:29:00,83.9,73.1,29.96,West,273,0.0,49.1,70,0.82,,,0.00,VWS V14.01,2013-07-10 15:29:00,
2013-07-10 11:34:00,84.5,73.4,29.96,WSW,239,5.2,49.1,70,0.82,,,0.00,VWS V14.01,2013-07-10 15:34:00,
2013-07-10 11:39:00,84.4,72.8,29.95,NNE,15,0.0,49.1,68,0.82,,,0.00,VWS V14.01,2013-07-10 15:39:00,
2013-07-10 11:44:00,83.8,72.5,29.95,NNE,14,0.0,49.1,69,0.82,,,0.00,VWS V14.01,2013-07-10 15:44:00,
2013-07-10 11:50:00,83.1,72.9,29.95,WNW,284,0.0,49.1,71,0.82,,,0.00,VWS V14.01,2013-07-10 15:50:00,
2013-07-10 11:55:00,82.3,73.2,29.95,WNW,284,0.0,49.1,74,0.82,,,0.00,VWS V14.01,2013-07-10 15:55:00,
2013-07-10 12:00:00,82.0,73.5,29.95,WNW,284,0.0,49.1,76,0.82,,,0.00,VWS V14.01,2013-07-10 16:00:00,
2013-07-10 12:05:00,82.0,74.3,29.95,SW,218,0.0,49.1,78,0.82,,,0.00,VWS V14.01,2013-07-10 16:05:00,
2013-07-10 12:10:00,82.0,73.9,29.95,SW,218,0.0,49.1,77,0.82,,,0.00,VWS V14.01,2013-07-10 16:10:00,
2013-07-10 12:16:00,82.1,74.8,29.95,WSW,255,0.0,49.1,79,0.82,,,0.00,VWS V14.01,2013-07-10 16:16:00,
2013-07-10 12:21:00,82.9,74.9,29.94,SW,215,0.0,49.1,77,0.82,,,0.00,VWS V14.01,2013-07-10 16:21:00,
2013-07-10 12:26:00,83.3,74.4,29.94,SW,215,0.0,49.1,75,0.82,,,0.00,VWS V14.01,2013-07-10 16:26:00,
2013-07-10 12:32:00,83.2,74.4,29.94,SW,215,0.0,49.1,75,0.82,,,0.00,VWS V14.01,2013-07-10 16:32:00,
2013-07-10 12:37:00,82.6,74.2,29.93,NW,318,0.0,49.1,76,0.82,,,0.00,VWS V14.01,2013-07-10 16:37:00,
2013-07-10 12:43:00,82.4,74.5,29.93,NW,318,0.0,49.1,77,0.82,,,0.00,VWS V14.01,2013-07-10 16:43:00,
2013-07-10 12:48:00,82.9,75.3,29.93,NW,318,0.0,49.1,78,0.82,,,0.00,VWS V14.01,2013-07-10 16:48:00,
2013-07-10 12:53:00,83.7,74.4,29.93,West,262,0.0,49.1,74,0.82,,,0.00,VWS V14.01,2013-07-10 16:53:00,
2013-07-10 12:58:00,84.6,75.1,29.92,East,89,0.0,49.1,73,0.82,,,0.00,VWS V14.01,2013-07-10 16:58:00,
2013-07-10 13:03:00,85.2,74.8,29.92,West,280,0.0,49.1,71,0.82,,,0.00,VWS V14.01,2013-07-10 17:03:00,
2013-07-10 13:09:00,85.7,74.0,29.92,SW,231,0.0,49.1,68,0.82,,,0.00,VWS V14.01,2013-07-10 17:09:00,
2013-07-10 13:14:00,85.8,72.8,29.92,SSW,194,4.3,49.1,65,0.82,,,0.00,VWS V14.01,2013-07-10 17:14:00,
2013-07-10 13:19:00,85.6,72.8,29.92,WNW,294,2.7,49.1,66,0.82,,,0.00,VWS V14.01,2013-07-10 17:19:00,
2013-07-10 13:24:00,85.8,74.1,29.92,SW,226,0.0,49.1,68,0.82,,,0.00,VWS V14.01,2013-07-10 17:24:00,
2013-07-10 13:30:00,85.5,73.2,29.92,WNW,301,0.0,49.1,67,0.82,,,0.00,VWS V14.01,2013-07-10 17:30:00,
2013-07-10 13:35:00,85.8,73.2,29.91,SW,225,0.0,49.1,66,0.82,,,0.00,VWS V14.01,2013-07-10 17:35:00,
2013-07-10 13:40:00,85.9,72.5,29.91,West,278,0.0,49.1,64,0.82,,,0.00,VWS V14.01,2013-07-10 17:40:00,
2013-07-10 13:45:00,85.8,73.5,29.90,West,266,0.0,49.1,67,0.82,,,0.00,VWS V14.01,2013-07-10 17:45:00,
2013-07-10 13:50:00,86.3,73.6,29.90,North,359,0.0,49.1,66,0.82,,,0.00,VWS V14.01,2013-07-10 17:50:00,
2013-07-10 13:56:00,86.5,73.4,29.90,West,264,0.0,49.1,65,0.82,,,0.00,VWS V14.01,2013-07-10 17:56:00,
2013-07-10 14:01:00,86.5,73.7,29.90,West,264,0.0,49.1,66,0.82,,,0.00,VWS V14.01,2013-07-10 18:01:00,
2013-07-10 14:06:00,86.8,73.9,29.90,NW,315,0.0,49.1,66,0.82,,,0.00,VWS V14.01,2013-07-10 18:06:00,
2013-07-10 14:11:00,87.1,73.1,29.90,WSW,242,2.6,49.1,63,0.82,,,0.00,VWS V14.01,2013-07-10 18:11:00,
2013-07-10 14:16:00,87.4,73.8,29.90,West,267,0.0,49.1,64,0.82,,,0.00,VWS V14.01,2013-07-10 18:16:00,
2013-07-10 14:22:00,86.8,73.5,29.90,NE,34,0.0,49.1,65,0.82,,,0.00,VWS V14.01,2013-07-10 18:22:00,
2013-07-10 14:27:00,86.3,73.4,29.90,West,281,0.0,49.1,66,0.82,,,0.00,VWS V14.01,2013-07-10 18:27:00,
2013-07-10 14:32:00,85.4,73.7,29.90,South,174,0.0,49.1,68,0.83,,,0.01,VWS V14.01,2013-07-10 18:32:00,
2013-07-10 14:37:00,84.7,75.1,29.90,South,174,0.0,49.1,73,0.87,,,0.05,VWS V14.01,2013-07-10 18:37:00,
2013-07-10 14:42:00,83.8,75.1,29.90,South,173,4.1,49.1,75,1.00,,,0.18,VWS V14.01,2013-07-10 18:42:00,
2013-07-10 14:48:00,81.0,74.2,29.89,NW,314,0.0,49.1,80,1.07,,,0.25,VWS V14.01,2013-07-10 18:48:00,
2013-07-10 14:53:00,80.3,75.0,29.89,SW,229,0.0,49.1,84,1.07,,,0.25,VWS V14.01,2013-07-10 18:53:00,
2013-07-10 14:58:00,81.4,76.9,29.89,SW,229,0.0,49.1,86,1.07,,,0.25,VWS V14.01,2013-07-10 18:58:00,
2013-07-10 15:03:00,82.8,77.6,29.88,SW,229,0.0,49.1,84,1.07,,,0.25,VWS V14.01,2013-07-10 19:03:00,
2013-07-10 15:09:00,84.1,78.7,29.88,SW,229,0.0,49.1,84,1.07,,,0.25,VWS V14.01,2013-07-10 19:09:00,
2013-07-10 15:14:00,84.5,77.0,29.88,ESE,114,4.6,49.1,78,1.07,,,0.25,VWS V14.01,2013-07-10 19:14:00,
2013-07-10 15:19:00,84.8,76.8,29.88,ESE,114,0.0,49.1,77,1.07,,,0.25,VWS V14.01,2013-07-10 19:19:00,
2013-07-10 15:24:00,85.7,78.4,29.88,WNW,287,0.0,49.1,79,1.07,,,0.25,VWS V14.01,2013-07-10 19:24:00,
2013-07-10 15:29:00,86.6,78.1,29.88,WNW,287,0.0,49.1,76,1.07,,,0.25,VWS V14.01,2013-07-10 19:29:00,
2013-07-10 15:35:00,87.0,78.6,29.88,WNW,287,0.0,49.1,76,1.07,,,0.25,VWS V14.01,2013-07-10 19:35:00,
2013-07-10 15:40:00,86.6,76.5,29.87,SW,226,0.0,49.1,72,1.07,,,0.25,VWS V14.01,2013-07-10 19:40:00,
2013-07-10 15:45:00,86.2,76.3,29.88,SSE,166,0.0,49.1,72,1.07,,,0.25,VWS V14.01,2013-07-10 19:45:00,
2013-07-10 15:50:00,85.6,76.3,29.87,SSE,166,0.0,49.1,74,1.07,,,0.25,VWS V14.01,2013-07-10 19:50:00,
2013-07-10 15:56:00,85.0,76.5,29.87,SSE,166,0.0,49.1,76,1.07,,,0.25,VWS V14.01,2013-07-10 19:56:00,
2013-07-10 16:01:00,84.7,76.1,29.87,WNW,291,0.0,49.1,76,1.07,,,0.25,VWS V14.01,2013-07-10 20:01:00,
2013-07-10 16:06:00,83.8,75.5,29.88,South,181,7.4,49.1,76,1.14,,,0.32,VWS V14.01,2013-07-10 20:06:00,
2013-07-10 16:12:00,81.7,74.8,29.88,WNW,290,0.0,49.1,80,1.25,,,0.44,VWS V14.01,2013-07-10 20:12:00,
2013-07-10 16:17:00,80.5,74.5,29.88,NW,309,0.0,49.1,82,1.26,,,0.44,VWS V14.01,2013-07-10 20:17:00,
2013-07-10 16:23:00,81.1,76.5,29.87,NW,309,0.0,49.1,86,1.26,,,0.44,VWS V14.01,2013-07-10 20:23:00,
2013-07-10 16:28:00,82.1,77.0,29.87,NW,309,0.0,49.1,85,1.26,,,0.44,VWS V14.01,2013-07-10 20:28:00,
2013-07-10 16:35:00,82.6,76.9,29.86,NW,309,0.0,49.1,83,1.26,,,0.44,VWS V14.01,2013-07-10 20:35:00,
2013-07-10 16:41:00,82.1,76.1,29.86,NW,309,0.0,49.1,82,1.27,,,0.45,VWS V14.01,2013-07-10 20:41:00,
2013-07-10 16:46:00,81.4,75.3,29.87,West,277,3.3,49.1,82,1.27,,,0.45,VWS V14.01,2013-07-10 20:46:00,
2013-07-10 16:52:00,80.3,74.4,29.87,West,277,0.0,49.1,82,1.27,,,0.45,VWS V14.01,2013-07-10 20:52:00,
2013-07-10 16:57:00,80.4,75.5,29.86,West,277,0.0,49.1,85,1.27,,,0.45,VWS V14.01,2013-07-10 20:57:00,
2013-07-10 17:02:00,81.1,76.7,29.86,West,277,0.0,49.1,87,1.27,,,0.45,VWS V14.01,2013-07-10 21:02:00,
2013-07-10 17:08:00,81.7,77.1,29.86,West,277,0.0,49.1,86,1.27,,,0.45,VWS V14.01,2013-07-10 21:08:00,
2013-07-10 17:14:00,82.0,76.9,29.85,West,277,0.0,49.1,85,1.27,,,0.45,VWS V14.01,2013-07-10 21:14:00,
2013-07-10 17:19:00,82.0,77.2,29.85,West,277,0.0,49.1,85,1.27,,,0.45,VWS V14.01,2013-07-10 21:19:00,
2013-07-10 17:25:00,82.3,77.4,29.85,West,277,0.0,49.1,85,1.27,,,0.45,VWS V14.01,2013-07-10 21:25:00,
2013-07-10 17:30:00,82.8,78.6,29.85,West,277,0.0,49.1,87,1.27,,,0.45,VWS V14.01,2013-07-10 21:30:00,
2013-07-10 17:36:00,84.1,79.0,29.84,West,277,0.0,49.1,85,1.27,,,0.45,VWS V14.01,2013-07-10 21:36:00,
2013-07-10 17:42:00,83.7,77.6,29.85,WNW,297,0.0,49.1,82,1.27,,,0.45,VWS V14.01,2013-07-10 21:42:00,
2013-07-10 17:47:00,83.4,77.4,29.85,WNW,297,0.0,49.1,82,1.27,,,0.45,VWS V14.01,2013-07-10 21:47:00,
2013-07-10 17:53:00,82.8,76.8,29.85,WNW,297,0.0,49.1,82,1.27,,,0.45,VWS V14.01,2013-07-10 21:53:00,
2013-07-10 17:58:00,82.5,76.9,29.85,WNW,297,0.0,49.1,83,1.27,,,0.45,VWS V14.01,2013-07-10 21:58:00,
2013-07-10 18:04:00,82.3,76.6,29.85,WNW,297,0.0,49.1,83,1.27,,,0.45,VWS V14.01,2013-07-10 22:04:00,
2013-07-10 18:10:00,82.1,76.5,29.85,WNW,297,0.0,49.1,83,1.27,,,0.45,VWS V14.01,2013-07-10 22:10:00,
2013-07-10 18:15:00,82.0,76.6,29.84,WNW,297,0.0,49.1,84,1.27,,,0.45,VWS V14.01,2013-07-10 22:15:00,
2013-07-10 18:20:00,82.0,76.3,29.84,WNW,297,0.0,49.1,83,1.27,,,0.45,VWS V14.01,2013-07-10 22:20:00,
2013-07-10 18:26:00,81.8,76.1,29.85,WNW,297,0.0,49.1,83,1.27,,,0.45,VWS V14.01,2013-07-10 22:26:00,
2013-07-10 18:31:00,81.6,75.7,29.86,WNW,297,0.0,49.1,82,1.27,,,0.45,VWS V14.01,2013-07-10 22:31:00,
2013-07-10 18:36:00,81.4,75.6,29.86,WNW,297,0.0,49.1,83,1.27,,,0.45,VWS V14.01,2013-07-10 22:36:00,
2013-07-10 18:41:00,81.1,75.4,29.86,NW,309,0.0,49.1,83,1.27,,,0.45,VWS V14.01,2013-07-10 22:41:00,
2013-07-10 18:46:00,80.5,75.3,29.86,NW,309,0.0,49.1,84,1.27,,,0.45,VWS V14.01,2013-07-10 22:46:00,
2013-07-10 18:52:00,80.4,75.2,29.87,NW,309,0.0,49.1,84,1.27,,,0.45,VWS V14.01,2013-07-10 22:52:00,
2013-07-10 18:57:00,80.2,75.1,29.87,West,273,0.0,49.1,85,1.27,,,0.45,VWS V14.01,2013-07-10 22:57:00,
2013-07-10 19:02:00,80.2,75.2,29.87,West,273,0.0,49.1,85,1.27,,,0.45,VWS V14.01,2013-07-10 23:02:00,
2013-07-10 19:07:00,80.3,75.3,29.87,West,273,0.0,49.1,85,1.27,,,0.45,VWS V14.01,2013-07-10 23:07:00,
2013-07-10 19:13:00,80.5,75.7,29.87,West,260,0.0,49.1,85,1.27,,,0.45,VWS V14.01,2013-07-10 23:13:00,
2013-07-10 19:18:00,80.5,75.7,29.87,West,260,0.0,49.1,85,1.27,,,0.45,VWS V14.01,2013-07-10 23:18:00,
2013-07-10 19:23:00,80.6,75.8,29.87,West,260,0.0,49.1,85,1.27,,,0.45,VWS V14.01,2013-07-10 23:23:00,
2013-07-10 19:28:00,80.7,75.6,29.88,West,260,0.0,49.1,85,1.27,,,0.45,VWS V14.01,2013-07-10 23:28:00,
2013-07-10 19:33:00,80.4,75.3,29.88,West,260,0.0,49.1,84,1.27,,,0.45,VWS V14.01,2013-07-10 23:33:00,
2013-07-10 19:38:00,80.3,75.1,29.88,West,260,0.0,49.1,84,1.27,,,0.45,VWS V14.01,2013-07-10 23:38:00,
2013-07-10 19:44:00,80.2,74.9,29.88,West,260,0.0,49.1,84,1.27,,,0.45,VWS V14.01,2013-07-10 23:44:00,
2013-07-10 19:49:00,80.0,74.9,29.88,West,260,0.0,49.1,84,1.27,,,0.45,VWS V14.01,2013-07-10 23:49:00,
2013-07-10 19:54:00,79.7,74.4,29.88,West,260,0.0,49.1,84,1.27,,,0.45,VWS V14.01,2013-07-10 23:54:00,
2013-07-10 19:59:00,79.3,74.4,29.88,West,260,0.0,49.1,85,1.27,,,0.45,VWS V14.01,2013-07-10 23:59:00,
2013-07-10 20:05:00,79.2,74.5,29.88,West,260,0.0,49.1,86,1.27,,,0.45,VWS V14.01,2013-07-11 00:05:00,
2013-07-10 20:10:00,79.1,74.6,29.88,West,260,0.0,49.1,86,1.27,,,0.45,VWS V14.01,2013-07-11 00:10:00,
2013-07-10 20:15:00,79.0,74.6,29.88,West,260,0.0,49.1,86,1.27,,,0.45,VWS V14.01,2013-07-11 00:15:00,
2013-07-10 20:20:00,78.7,74.1,29.88,West,260,0.0,49.1,86,1.27,,,0.45,VWS V14.01,2013-07-11 00:20:00,
2013-07-10 20:25:00,78.3,74.1,29.88,West,260,0.0,49.1,87,1.27,,,0.45,VWS V14.01,2013-07-11 00:25:00,
2013-07-10 20:30:00,78.4,74.3,29.88,West,260,0.0,49.1,87,1.27,,,0.45,VWS V14.01,2013-07-11 00:30:00,
2013-07-10 20:36:00,78.1,74.1,29.88,West,260,0.0,49.1,88,1.27,,,0.45,VWS V14.01,2013-07-11 00:36:00,
2013-07-10 20:41:00,77.7,73.6,29.88,West,260,0.0,49.1,87,1.27,,,0.45,VWS V14.01,2013-07-11 00:41:00,
2013-07-10 20:46:00,77.8,73.6,29.88,West,260,0.0,49.1,87,1.27,,,0.45,VWS V14.01,2013-07-11 00:46:00,
2013-07-10 20:51:00,77.4,73.3,29.88,West,260,0.0,49.1,87,1.27,,,0.45,VWS V14.01,2013-07-11 00:51:00,
2013-07-10 20:56:00,77.2,73.1,29.88,West,260,0.0,49.1,87,1.27,,,0.45,VWS V14.01,2013-07-11 00:56:00,
2013-07-10 21:02:00,77.2,73.4,29.88,West,260,0.0,49.1,88,1.27,,,0.45,VWS V14.01,2013-07-11 01:02:00,
2013-07-10 21:07:00,76.9,73.2,29.88,West,260,0.0,49.1,88,1.27,,,0.45,VWS V14.01,2013-07-11 01:07:00,
2013-07-10 21:12:00,76.9,73.4,29.88,West,260,0.0,49.1,89,1.27,,,0.45,VWS V14.01,2013-07-11 01:12:00,
2013-07-10 21:17:00,76.7,73.3,29.88,West,260,0.0,49.1,89,1.27,,,0.45,VWS V14.01,2013-07-11 01:17:00,
2013-07-10 21:22:00,76.6,73.4,29.89,West,260,0.0,49.1,90,1.27,,,0.45,VWS V14.01,2013-07-11 01:22:00,
2013-07-10 21:23:00,76.7,73.6,29.89,West,260,0.0,49.1,90,1.27,,,0.45,VWS V14.01,2013-07-11 01:23:00,
2013-07-10 21:29:00,76.4,73.4,29.89,West,260,0.0,49.1,90,1.27,,,0.45,VWS V14.01,2013-07-11 01:29:00,
2013-07-10 21:34:00,76.2,73.3,29.89,West,274,0.0,49.1,91,1.27,,,0.45,VWS V14.01,2013-07-11 01:34:00,
2013-07-10 21:39:00,76.0,73.1,29.89,West,274,0.0,49.1,91,1.27,,,0.45,VWS V14.01,2013-07-11 01:39:00,
2013-07-10 21:44:00,76.0,73.1,29.89,West,274,0.0,49.1,91,1.27,,,0.45,VWS V14.01,2013-07-11 01:44:00,
2013-07-10 21:49:00,76.0,73.1,29.89,West,274,0.0,49.1,91,1.27,,,0.45,VWS V14.01,2013-07-11 01:49:00,
2013-07-10 21:55:00,75.9,73.0,29.89,West,274,0.0,49.1,91,1.27,,,0.45,VWS V14.01,2013-07-11 01:55:00,
2013-07-10 22:00:00,75.8,73.0,29.89,West,274,0.0,49.1,91,1.27,,,0.45,VWS V14.01,2013-07-11 02:00:00,
2013-07-10 22:05:00,75.7,73.0,29.89,WNW,290,0.0,49.1,91,1.27,,,0.45,VWS V14.01,2013-07-11 02:05:00,
2013-07-10 22:10:00,75.6,72.9,29.89,WNW,290,0.0,49.1,91,1.27,,,0.45,VWS V14.01,2013-07-11 02:10:00,
2013-07-10 22:15:00,75.4,72.8,29.89,WNW,290,0.0,49.1,92,1.27,,,0.45,VWS V14.01,2013-07-11 02:15:00,
2013-07-10 22:21:00,75.4,72.7,29.89,SW,235,0.0,49.1,91,1.27,,,0.45,VWS V14.01,2013-07-11 02:21:00,
2013-07-10 22:26:00,75.2,72.6,29.89,SW,235,0.0,49.1,92,1.27,,,0.45,VWS V14.01,2013-07-11 02:26:00,
2013-07-10 22:31:00,75.1,72.6,29.89,SW,235,0.0,49.1,92,1.27,,,0.45,VWS V14.01,2013-07-11 02:31:00,
2013-07-10 22:36:00,75.1,72.6,29.89,SW,235,0.0,49.1,92,1.27,,,0.45,VWS V14.01,2013-07-11 02:36:00,
2013-07-10 22:41:00,75.1,72.6,29.89,SW,235,0.0,49.1,92,1.27,,,0.45,VWS V14.01,2013-07-11 02:41:00,
2013-07-10 22:47:00,75.1,72.6,29.89,SSW,211,0.0,49.1,92,1.27,,,0.45,VWS V14.01,2013-07-11 02:47:00,
2013-07-10 22:52:00,75.0,72.5,29.89,SSW,211,0.0,49.1,92,1.27,,,0.45,VWS V14.01,2013-07-11 02:52:00,
2013-07-10 22:57:00,75.0,72.4,29.88,SSW,211,0.0,49.1,92,1.27,,,0.45,VWS V14.01,2013-07-11 02:57:00,
2013-07-10 23:02:00,75.1,72.5,29.88,SSW,211,0.0,49.1,92,1.27,,,0.45,VWS V14.01,2013-07-11 03:02:00,
2013-07-10 23:07:00,75.0,72.4,29.88,SSW,211,0.0,49.1,92,1.27,,,0.45,VWS V14.01,2013-07-11 03:07:00,
2013-07-10 23:13:00,74.9,72.2,29.88,SSW,211,0.0,49.1,91,1.27,,,0.45,VWS V14.01,2013-07-11 03:13:00,
2013-07-10 23:18:00,74.9,72.2,29.88,SSW,211,0.0,49.1,91,1.27,,,0.45,VWS V14.01,2013-07-11 03:18:00,
2013-07-10 23:23:00,74.8,72.0,29.88,SSW,211,0.0,49.1,91,1.27,,,0.45,VWS V14.01,2013-07-11 03:23:00,
2013-07-10 23:28:00,74.8,72.0,29.88,SSW,211,0.0,49.1,91,1.27,,,0.45,VWS V14.01,2013-07-11 03:28:00,
2013-07-10 23:33:00,74.8,72.0,29.88,SSW,211,0.0,49.1,91,1.27,,,0.45,VWS V14.01,2013-07-11 03:33:00,
2013-07-10 23:39:00,74.8,71.9,29.87,SSW,211,0.0,49.1,91,1.27,,,0.45,VWS V14.01,2013-07-11 03:39:00,
2013-07-10 23:44:00,74.8,72.0,29.87,SSW,211,0.0,49.1,91,1.27,,,0.45,VWS V14.01,2013-07-11 03:44:00,
2013-07-10 23:49:00,74.7,72.0,29.87,SSW,211,0.0,49.1,91,1.27,,,0.45,VWS V14.01,2013-07-11 03:49:00,
2013-07-10 23:54:00,74.6,71.9,29.87,SSW,211,0.0,49.1,91,1.27,,,0.45,VWS V14.01,2013-07-11 03:54:00,
2013-07-10 23:59:00,74.6,72.0,29.87,SSW,211,0.0,49.1,92,1.27,,,0.45,VWS V14.01,2013-07-11 03:59:00,